FDX1503 KMEM-KATL

Flight info

Callsign FDX1503
Flight time 0h 53m
Altitude 31000
Route BBKNG7 KERMI HUTCC KNSAW RUSSA GLAVN2
Aircraft A35K/H-SDE2E3GHIJ3J4J5LM1ORWXY/LB1D1

Departure

Time 2026-05-08 02:20
Airport Memphis International Airport (KMEM)

Arrival

Time 2026-05-08 03:13
Airport Hartsfield Jackson Atlanta International Airport (KATL)
Time Latitude Longitude Altitude Speed Heading
2026-05-08 01:52 35.06096 -89.96172 313 ft 0 kts
2026-05-08 02:05 35.06092 -89.96172 313 ft 3 kts
2026-05-08 02:05 35.06067 -89.96173 314 ft 4 kts 345°
2026-05-08 02:05 35.06047 -89.96158 314 ft 4 kts 298°
2026-05-08 02:05 35.06039 -89.96128 314 ft 3 kts 272°
2026-05-08 02:06 35.06046 -89.96122 314 ft 1 kts 272°
2026-05-08 02:06 35.06052 -89.96116 314 ft 1 kts 272°
2026-05-08 02:06 35.06055 -89.96109 314 ft 1 kts 272°
2026-05-08 02:06 35.06106 -89.96171 316 ft 0 kts
2026-05-08 02:07 35.06077 -89.96172 316 ft 0 kts
2026-05-08 02:07 35.06086 -89.96177 315 ft 0 kts
2026-05-08 02:07 35.06081 -89.96177 318 ft 26 kts
2026-05-08 02:07 35.06109 -89.96294 317 ft 0 kts
2026-05-08 02:08 35.06043 -89.96255 315 ft 0 kts 78°
2026-05-08 02:08 35.06043 -89.96254 315 ft 0 kts 78°
2026-05-08 02:13 35.06042 -89.96240 315 ft 5 kts 97°
2026-05-08 02:13 35.06021 -89.96232 317 ft 5 kts 257°
2026-05-08 02:13 35.06014 -89.96432 316 ft 34 kts 264°
2026-05-08 02:13 35.05921 -89.96611 315 ft 20 kts 255°
2026-05-08 02:14 35.05926 -89.96813 313 ft 30 kts 272°
2026-05-08 02:14 35.05907 -89.96982 315 ft 0 kts 208°
2026-05-08 02:14 35.05904 -89.96984 314 ft 0 kts 208°
2026-05-08 02:14 35.05733 -89.96968 310 ft 50 kts 169°
2026-05-08 02:15 35.05382 -89.96995 310 ft 50 kts 189°
2026-05-08 02:15 35.05071 -89.97055 323 ft 40 kts 186°
2026-05-08 02:15 35.04798 -89.97064 325 ft 41 kts 179°
2026-05-08 02:15 35.04492 -89.97060 320 ft 46 kts 182°
2026-05-08 02:16 35.04161 -89.97097 317 ft 48 kts 178°
2026-05-08 02:16 35.03814 -89.97088 316 ft 51 kts 179°
2026-05-08 02:16 35.03454 -89.97083 315 ft 53 kts 179°
2026-05-08 02:16 35.03081 -89.97077 309 ft 56 kts 179°
2026-05-08 02:17 35.02696 -89.97023 305 ft 54 kts 177°
2026-05-08 02:17 35.02464 -89.97028 303 ft 0 kts 195°
2026-05-08 02:17 35.02458 -89.97034 302 ft 6 kts 213°
2026-05-08 02:17 35.02432 -89.97089 303 ft 1 kts 253°
2026-05-08 02:18 35.02423 -89.97195 301 ft 32 kts 268°
2026-05-08 02:18 35.02502 -89.97253 301 ft 2 kts
2026-05-08 02:19 35.02503 -89.97253 301 ft 0 kts
2026-05-08 02:19 35.02628 -89.97251 304 ft 52 kts 359°
2026-05-08 02:19 35.03227 -89.97260 310 ft 118 kts 360°
2026-05-08 02:19 35.04248 -89.97282 322 ft 173 kts 359°
2026-05-08 02:20 35.05578 -89.97313 527 ft 207 kts 359°
2026-05-08 02:20 35.07093 -89.97352 1080 ft 225 kts 359°
2026-05-08 02:20 35.08671 -89.97647 1837 ft 238 kts 341°
2026-05-08 02:20 35.10325 -89.98082 2517 ft 251 kts
2026-05-08 02:21 35.11929 -89.97424 3665 ft 237 kts 38°
2026-05-08 02:21 35.12958 -89.96040 4988 ft 220 kts 55°
2026-05-08 02:21 35.13855 -89.94560 5735 ft 218 kts 49°
2026-05-08 02:21 35.14692 -89.92935 6328 ft 229 kts 61°
2026-05-08 02:22 35.15228 -89.91121 7038 ft 230 kts 74°
2026-05-08 02:22 35.15390 -89.89119 7593 ft 247 kts 91°
2026-05-08 02:22 35.14999 -89.86959 7881 ft 274 kts 109°
2026-05-08 02:22 35.14083 -89.84829 8237 ft 295 kts 126°
2026-05-08 02:23 35.12640 -89.82986 8883 ft 304 kts 144°
2026-05-08 02:23 35.10972 -89.81399 9734 ft 304 kts 133°
2026-05-08 02:23 35.09624 -89.79423 10550 ft 304 kts 128°
2026-05-08 02:23 35.08678 -89.77092 11246 ft 311 kts 112°
2026-05-08 02:24 35.07754 -89.74709 12123 ft 305 kts 118°
2026-05-08 02:24 35.06840 -89.72366 12949 ft 310 kts 114°
2026-05-08 02:24 35.06128 -89.69824 13269 ft 331 kts 108°
2026-05-08 02:24 35.05455 -89.67014 13593 ft 352 kts 107°
2026-05-08 02:25 35.04770 -89.64080 13883 ft 372 kts 107°
2026-05-08 02:25 35.04045 -89.60950 14162 ft 390 kts 107°
2026-05-08 02:25 35.03172 -89.57725 14422 ft 407 kts 111°
2026-05-08 02:25 35.02220 -89.54430 14695 ft 422 kts 111°
2026-05-08 02:26 35.01226 -89.51022 15165 ft 429 kts 111°
2026-05-08 02:26 35.00205 -89.47556 15688 ft 435 kts 111°
2026-05-08 02:26 34.99186 -89.44114 15951 ft 437 kts 112°
2026-05-08 02:26 34.98141 -89.40596 15994 ft 440 kts 112°
2026-05-08 02:27 34.97092 -89.37076 16000 ft 441 kts 112°
2026-05-08 02:27 34.96046 -89.33575 15999 ft 442 kts 112°
2026-05-08 02:27 34.94999 -89.30077 15999 ft 442 kts 112°
2026-05-08 02:27 34.93944 -89.26556 16000 ft 442 kts 112°
2026-05-08 02:28 34.92886 -89.23031 16005 ft 442 kts 112°
2026-05-08 02:28 34.91828 -89.19506 16002 ft 442 kts 112°
2026-05-08 02:28 34.90781 -89.16011 16001 ft 443 kts 112°
2026-05-08 02:28 34.89925 -89.12370 16009 ft 445 kts 104°
2026-05-08 02:29 34.89283 -89.08665 16271 ft 448 kts 103°
2026-05-08 02:29 34.88665 -89.04966 16881 ft 451 kts 103°
2026-05-08 02:29 34.88030 -89.01186 17515 ft 455 kts 103°
2026-05-08 02:29 34.87394 -88.97425 18132 ft 459 kts 103°
2026-05-08 02:30 34.86739 -88.93571 18690 ft 464 kts 104°
2026-05-08 02:30 34.86073 -88.89740 19213 ft 468 kts 104°
2026-05-08 02:30 34.85385 -88.85817 19760 ft 473 kts 104°
2026-05-08 02:30 34.84697 -88.81866 20290 ft 478 kts 104°
2026-05-08 02:31 34.84017 -88.77945 20830 ft 482 kts 104°
2026-05-08 02:31 34.83322 -88.73930 21391 ft 487 kts 104°
2026-05-08 02:31 34.82619 -88.69866 21939 ft 491 kts 104°
2026-05-08 02:31 34.81908 -88.65761 22516 ft 495 kts 104°
2026-05-08 02:32 34.81201 -88.61679 23056 ft 500 kts 104°
2026-05-08 02:32 34.80473 -88.57490 23628 ft 504 kts 104°
2026-05-08 02:32 34.79748 -88.53322 24056 ft 510 kts 104°
2026-05-08 02:32 34.79256 -88.50502 24302 ft 515 kts 104°
2026-05-08 02:33 34.78504 -88.46200 24684 ft 521 kts 104°
2026-05-08 02:33 34.77490 -88.40409 25178 ft 530 kts 104°
2026-05-08 02:33 34.76977 -88.37485 25434 ft 534 kts 104°
2026-05-08 02:33 34.76195 -88.33034 25813 ft 540 kts 105°
2026-05-08 02:34 34.75399 -88.28515 26191 ft 546 kts 105°
2026-05-08 02:34 34.74595 -88.23965 26556 ft 551 kts 105°
2026-05-08 02:34 34.73794 -88.19440 26916 ft 557 kts 105°
2026-05-08 02:34 34.72973 -88.14812 27282 ft 562 kts 105°
2026-05-08 02:35 34.72210 -88.10145 27637 ft 569 kts 103°
2026-05-08 02:35 34.71545 -88.05367 28021 ft 572 kts 102°
2026-05-08 02:35 34.70930 -88.00553 28486 ft 575 kts 101°
2026-05-08 02:35 34.70326 -87.95761 28819 ft 581 kts 102°
2026-05-08 02:36 34.69700 -87.90863 29153 ft 586 kts 102°
2026-05-08 02:36 34.69054 -87.85950 29510 ft 590 kts 102°
2026-05-08 02:36 34.68398 -87.81059 29851 ft 595 kts 102°
2026-05-08 02:36 34.67714 -87.76044 30180 ft 599 kts 103°
2026-05-08 02:37 34.67033 -87.71095 30504 ft 602 kts 103°
2026-05-08 02:37 34.66340 -87.66075 30873 ft 603 kts 103°
2026-05-08 02:37 34.65639 -87.61019 31044 ft 602 kts 103°
2026-05-08 02:37 34.64945 -87.56013 31079 ft 594 kts 103°
2026-05-08 02:38 34.63574 -87.46174 31065 ft 591 kts 103°
2026-05-08 02:38 34.62094 -87.36343 31061 ft 590 kts 107°
2026-05-08 02:39 34.60266 -87.26686 31050 ft 588 kts 108°
2026-05-08 02:39 34.58387 -87.17039 31066 ft 588 kts 108°
2026-05-08 02:40 34.56558 -87.07322 31069 ft 589 kts 107°
2026-05-08 02:40 34.54933 -86.97643 31075 ft 589 kts 105°
2026-05-08 02:41 34.52853 -86.88099 31068 ft 585 kts 112°
2026-05-08 02:41 34.50404 -86.78683 30843 ft 585 kts 113°
2026-05-08 02:42 34.49165 -86.73936 30607 ft 587 kts 112°
2026-05-08 02:42 34.47945 -86.69262 30374 ft 587 kts 112°
2026-05-08 02:42 34.46700 -86.64506 30146 ft 587 kts 112°
2026-05-08 02:42 34.45478 -86.59838 29863 ft 585 kts 112°
2026-05-08 02:43 34.44250 -86.55151 29588 ft 583 kts 112°
2026-05-08 02:43 34.43015 -86.50444 29318 ft 580 kts 112°
2026-05-08 02:43 34.41808 -86.45850 29009 ft 575 kts 113°
2026-05-08 02:43 34.40598 -86.41242 28738 ft 563 kts 113°
2026-05-08 02:44 34.39419 -86.36760 28497 ft 555 kts 113°
2026-05-08 02:44 34.38253 -86.32364 28240 ft 552 kts 113°
2026-05-08 02:44 34.37078 -86.27941 27982 ft 551 kts 113°
2026-05-08 02:44 34.35904 -86.23525 27704 ft 548 kts 113°
2026-05-08 02:45 34.34736 -86.19133 27448 ft 546 kts 112°
2026-05-08 02:45 34.33574 -86.14764 27187 ft 544 kts 113°
2026-05-08 02:45 34.32447 -86.10466 26954 ft 542 kts 112°
2026-05-08 02:45 34.31321 -86.06094 26718 ft 540 kts 112°
2026-05-08 02:46 34.30199 -86.01746 26464 ft 537 kts 112°
2026-05-08 02:46 34.29097 -85.97492 26219 ft 535 kts 112°
2026-05-08 02:46 34.27982 -85.93200 25985 ft 533 kts 112°
2026-05-08 02:46 34.26869 -85.88920 25751 ft 531 kts 112°
2026-05-08 02:47 34.25767 -85.84696 25521 ft 528 kts 112°
2026-05-08 02:47 34.24659 -85.80457 25282 ft 526 kts 112°
2026-05-08 02:47 34.23563 -85.76270 25061 ft 524 kts 112°
2026-05-08 02:47 34.22456 -85.72046 24821 ft 522 kts 112°
2026-05-08 02:48 34.21371 -85.67912 24587 ft 520 kts 112°
2026-05-08 02:48 34.20276 -85.63749 24373 ft 517 kts 112°
2026-05-08 02:48 34.19185 -85.59605 24157 ft 515 kts 112°
2026-05-08 02:48 34.18108 -85.55523 23928 ft 513 kts 112°
2026-05-08 02:49 34.17020 -85.51404 23703 ft 511 kts 112°
2026-05-08 02:49 34.15950 -85.47356 23485 ft 505 kts 112°
2026-05-08 02:49 34.14892 -85.43353 23267 ft 493 kts 112°
2026-05-08 02:49 34.13864 -85.39441 23040 ft 481 kts 112°
2026-05-08 02:50 34.12883 -85.35663 22821 ft 470 kts 112°
2026-05-08 02:50 34.11917 -85.31936 22554 ft 460 kts 112°
2026-05-08 02:50 34.10970 -85.28274 22340 ft 450 kts 112°
2026-05-08 02:50 34.10047 -85.24706 22148 ft 439 kts 112°
2026-05-08 02:51 34.09150 -85.21251 21851 ft 432 kts 112°
2026-05-08 02:51 34.08245 -85.17780 21218 ft 436 kts 112°
2026-05-08 02:51 34.07317 -85.14241 20366 ft 445 kts 111°
2026-05-08 02:51 34.06380 -85.10675 19536 ft 455 kts 111°
2026-05-08 02:52 34.05334 -85.07034 18732 ft 459 kts 118°
2026-05-08 02:52 34.03659 -85.03859 18012 ft 447 kts 140°
2026-05-08 02:52 34.01406 -85.01308 17225 ft 441 kts 148°
2026-05-08 02:52 33.99063 -84.98932 16888 ft 431 kts 148°
2026-05-08 02:53 33.96839 -84.96663 16710 ft 418 kts 148°
2026-05-08 02:53 33.94639 -84.94406 16498 ft 406 kts 148°
2026-05-08 02:53 33.92540 -84.92244 16289 ft 394 kts 148°
2026-05-08 02:53 33.90475 -84.90114 16084 ft 382 kts 148°
2026-05-08 02:54 33.88502 -84.88076 15897 ft 371 kts 148°
2026-05-08 02:54 33.86573 -84.86079 15716 ft 360 kts 148°
2026-05-08 02:54 33.84696 -84.84135 15559 ft 349 kts 148°
2026-05-08 02:54 33.82885 -84.82259 15363 ft 338 kts 149°
2026-05-08 02:55 33.81143 -84.80457 15210 ft 328 kts 150°
2026-05-08 02:55 33.77759 -84.76961 14784 ft 314 kts 150°
2026-05-08 02:55 33.76119 -84.75276 14555 ft 313 kts 150°
2026-05-08 02:56 33.74464 -84.73578 14515 ft 313 kts 150°
2026-05-08 02:56 33.72747 -84.72004 14524 ft 305 kts 159°
2026-05-08 02:56 33.70965 -84.70683 14523 ft 302 kts 161°
2026-05-08 02:56 33.69155 -84.69409 14524 ft 302 kts 162°
2026-05-08 02:57 33.67334 -84.68132 14527 ft 302 kts 161°
2026-05-08 02:57 33.65518 -84.66855 14526 ft 302 kts 162°
2026-05-08 02:57 33.63720 -84.65588 14538 ft 302 kts 162°
2026-05-08 02:57 33.61898 -84.64305 14545 ft 302 kts 162°
2026-05-08 02:58 33.60084 -84.63028 14540 ft 303 kts 161°
2026-05-08 02:58 33.58292 -84.61763 14501 ft 302 kts 161°
2026-05-08 02:58 33.56495 -84.60419 14356 ft 308 kts 155°
2026-05-08 02:58 33.54915 -84.58590 13943 ft 324 kts 134°
2026-05-08 02:59 33.53900 -84.56170 13541 ft 333 kts 109°
2026-05-08 02:59 33.53585 -84.53432 13202 ft 330 kts 91°
2026-05-08 02:59 33.53582 -84.50698 12922 ft 323 kts 89°
2026-05-08 02:59 33.53608 -84.48085 12826 ft 308 kts 89°
2026-05-08 03:00 33.53626 -84.45550 12610 ft 299 kts 89°
2026-05-08 03:00 33.53638 -84.43087 12312 ft 295 kts 89°
2026-05-08 03:00 33.53646 -84.40630 11989 ft 292 kts 90°
2026-05-08 03:00 33.53652 -84.38206 11681 ft 288 kts 90°
2026-05-08 03:01 33.53656 -84.35844 11415 ft 285 kts 90°
2026-05-08 03:01 33.53658 -84.33483 11106 ft 282 kts 90°
2026-05-08 03:01 33.53659 -84.31139 10793 ft 280 kts 90°
2026-05-08 03:01 33.53662 -84.28781 10342 ft 284 kts 90°
2026-05-08 03:02 33.53660 -84.26422 9864 ft 288 kts 91°
2026-05-08 03:02 33.53660 -84.23995 9348 ft 292 kts 91°
2026-05-08 03:02 33.53659 -84.21541 8831 ft 294 kts 91°
2026-05-08 03:02 33.53659 -84.19103 8321 ft 298 kts 91°
2026-05-08 03:03 33.53658 -84.16591 7791 ft 302 kts 91°
2026-05-08 03:03 33.53657 -84.14041 7287 ft 306 kts 91°
2026-05-08 03:03 33.53660 -84.11510 6803 ft 307 kts 91°
2026-05-08 03:03 33.53662 -84.08913 6298 ft 309 kts 90°
2026-05-08 03:04 33.53685 -84.06346 5788 ft 309 kts 87°
2026-05-08 03:04 33.54106 -84.03845 5310 ft 305 kts 66°
2026-05-08 03:04 33.55199 -84.01823 5036 ft 276 kts 39°
2026-05-08 03:04 33.56710 -84.00687 4996 ft 238 kts 14°
2026-05-08 03:05 33.58207 -84.00399 5043 ft 204 kts 352°
2026-05-08 03:05 33.59524 -84.00681 5035 ft 188 kts 335°
2026-05-08 03:05 33.60595 -84.01517 5004 ft 182 kts 311°
2026-05-08 03:05 33.61236 -84.02816 4990 ft 182 kts 287°
2026-05-08 03:06 33.61499 -84.04289 4986 ft 182 kts 279°
2026-05-08 03:06 33.61681 -84.05784 4987 ft 180 kts 279°
2026-05-08 03:06 33.61860 -84.07283 4989 ft 180 kts 279°
2026-05-08 03:06 33.62038 -84.08761 4987 ft 179 kts 279°
2026-05-08 03:07 33.62218 -84.10227 4989 ft 178 kts 278°
2026-05-08 03:07 33.62398 -84.11696 4987 ft 178 kts 279°
2026-05-08 03:07 33.62582 -84.13177 4986 ft 178 kts 278°
2026-05-08 03:07 33.62763 -84.14654 4987 ft 179 kts 279°
2026-05-08 03:08 33.62947 -84.16121 4991 ft 179 kts 279°
2026-05-08 03:08 33.63145 -84.17592 5003 ft 178 kts 282°
2026-05-08 03:08 33.63374 -84.19060 5000 ft 179 kts 277°
2026-05-08 03:08 33.63417 -84.20539 5003 ft 179 kts 272°
2026-05-08 03:09 33.63439 -84.22036 5003 ft 178 kts 273°
2026-05-08 03:09 33.63487 -84.23507 5003 ft 178 kts 273°
2026-05-08 03:09 33.63473 -84.24976 4845 ft 170 kts 271°
2026-05-08 03:09 33.63468 -84.26396 4214 ft 174 kts 273°
2026-05-08 03:10 33.63477 -84.27885 3561 ft 182 kts 273°
2026-05-08 03:10 33.63479 -84.29428 2934 ft 186 kts 272°
2026-05-08 03:10 33.63455 -84.30971 2609 ft 185 kts 273°
2026-05-08 03:10 33.63444 -84.32531 2389 ft 187 kts 273°
2026-05-08 03:11 33.63433 -84.34074 2152 ft 187 kts 272°
2026-05-08 03:11 33.63438 -84.35629 1887 ft 185 kts 274°
2026-05-08 03:11 33.63474 -84.37000 1640 ft 176 kts 272°
2026-05-08 03:12 33.63476 -84.37173 1600 ft 175 kts 271°
2026-05-08 03:12 33.63466 -84.38599 1327 ft 181 kts 270°
2026-05-08 03:12 33.63465 -84.40063 1154 ft 166 kts 270°
2026-05-08 03:13 33.63470 -84.41378 1013 ft 151 kts 271°
2026-05-08 03:13 33.63471 -84.42494 1013 ft 115 kts 271°
2026-05-08 03:13 33.63471 -84.43328 1012 ft 72 kts 270°
2026-05-08 03:13 33.63426 -84.43611 1011 ft 18 kts 197°
2026-05-08 03:14 33.63365 -84.43676 1012 ft 10 kts 249°
2026-05-08 03:14 33.63362 -84.43682 1012 ft 0 kts 248°
2026-05-08 03:14 33.63327 -84.43723 1012 ft 20 kts 204°
2026-05-08 03:15 33.63231 -84.43674 1013 ft 14 kts 129°
2026-05-08 03:15 33.63186 -84.43485 1013 ft 29 kts 111°
2026-05-08 03:15 33.63050 -84.43406 1013 ft 22 kts 172°
2026-05-08 03:15 33.62854 -84.43403 1012 ft 32 kts 175°
2026-05-08 03:16 33.62794 -84.43355 1012 ft 2 kts 76°
2026-05-08 03:16 33.62877 -84.43312 1012 ft 17 kts
2026-05-08 03:16 33.62998 -84.43307 1013 ft 17 kts 360°
2026-05-08 03:16 33.63068 -84.43238 1013 ft 12 kts 77°
2026-05-08 03:17 33.63072 -84.43110 1013 ft 29 kts 89°
2026-05-08 03:17 33.63003 -84.42908 1012 ft 25 kts 156°
2026-05-08 03:17 33.62844 -84.42858 1012 ft 23 kts 179°
2026-05-08 03:17 33.62808 -84.42858 1012 ft 0 kts 181°
2026-05-08 03:18 33.62805 -84.42858 1012 ft 1 kts 181°
2026-05-08 03:18 33.62803 -84.42858 1012 ft 1 kts 181°
2026-05-08 03:18 33.62731 -84.42856 1012 ft 6 kts 173°
2026-05-08 03:18 33.62727 -84.42856 1012 ft 3 kts 173°
2026-05-08 03:19 33.62678 -84.42826 1012 ft 0 kts 108°
2026-05-08 03:19 33.62675 -84.42794 1012 ft 7 kts 95°
2026-05-08 03:19 33.62674 -84.42764 1012 ft 0 kts 93°